Location: Alexandria
(38.8050°N, 77.0470°W)
Time: 20:29:36
(UTC-04:00)

N. Korean satellite - Pass Details

Date: 15 March 2018
Orbit: 459 x 511 km, 97.2° (Epoch: 17 June)

Event Time Altitude Azimuth Distance (km) Brightness Sun altitude
Rises 06:46:44 0° 32° (NNE) 2,633 10.8 -7.2°
Reaches altitude 10° 06:49:35 10° 56° (NE) 1,738 10.4 -6.7°
Maximum altitude 06:51:49 15° 93° (E) 1,438 10.5 -6.2°
Drops below altitude 10° 06:54:01 10° 129° (SE) 1,721 10.2 -5.8°
Sets 06:56:49 0° 153° (SSE) 2,592 10.6 -5.3°
